[[{"header":{"parameterUnit":"m.s-1","parameterCategory":1,"la1":30.2991,"la2":30.254,"lo1":-89.0895,"lo2":-89.0444,"dy":0.0017,"dx":0.0017,"nx":28,"ny":28,"refTime":"2025-09-11T03:00:00:Z","depth":0,"parameterNumber":2,"parameterNumberName":"U-component_of_WINDS"},"data":[0,0,0,0,0,0,0,0,0,0,0,0,0,0,0,0,0,0,0,0,0,0,0,0,0,0,0,0,0,0,0,0,0,0,0,0,0,0,0,0,0,0,0,0,0,0,0,0,0,0,0,0,0,0,0,0,0,0,-1.903,-1.903,0,-1.9038,-1.9038,-1.9038,-1.9001,-1.9,-1.8999,-1.8998,-1.9005,-1.9006,-1.9008,0,0,0,0,0,0,0,0,0,0,0,0,0,-1.8984,-1.8985,-1.903,-1.903,-1.903,-1.9038,-1.9038,-1.9038,-1.9002,-1.9,-1.8999,-1.8998,-1.9005,-1.9006,-1.9008,0,0,0,0,0,0,0,0,0,0,0,0,0,-1.8999,-1.8985,-1.903,-1.9013,-1.9011,-1.9038,-1.9038,-1.9038,-1.9002,-1.9,-1.8999,-1.8997,-1.9005,-1.9006,-1.9008,-1.905,0,0,-1.9013,-1.9014,0,0,0,0,0,0,0,0,-1.8998,-1.9001,-1.9015,-1.9014,-1.9013,-1.9017,-1.9024,-1.9042,-1.9002,-1.9005,-1.8998,-1.8996,-1.901,-1.9012,-1.9016,-1.9051,-1.9051,-1.9013,-1.9015,-1.9015,-1.9016,0,0,0,0,0,0,0,-1.8997,-1.9,-1.9033,-1.9016,-1.9014,-1.9005,-1.9005,-1.9027,-1.9017,-1.9005,-1.9002,-1.9004,-1.9009,-1.9015,-1.9016,-1.9051,-1.9013,-1.9015,-1.9016,-1.9017,-1.9122,-1.9124,0,0,0,0,0,0,-1.8998,-1.8999,-1.9033,-1.9033,-1.9001,-1.9007,-1.9008,-1.9017,-1.9016,-1.9015,-1.9005,-1.9002,-1.9013,-1.9014,-1.9016,-1.9067,-1.9015,-1.9017,-1.9018,-1.912,-1.9122,-1.9124,0,0,0,0,0,0,-1.8997,-1.9002,-1.9032,-1.9016,-1.9019,-1.901,-1.9021,-1.9018,-1.9024,-1.9017,-1.9014,-1.9013,-1.9011,-1.9014,-1.9043,-1.9067,-1.9018,-1.9019,-1.9118,-1.9121,-1.9123,-1.9168,0,0,0,0,0,0,-1.8996,-1.9002,-1.9017,-1.9016,-1.902,-1.9058,-1.9022,-1.9019,-1.9027,-1.9023,-1.9023,-1.9022,-1.901,-1.904,-1.9044,-1.9068,-1.9021,-1.9116,-1.9119,-1.9122,-1.9164,-1.9172,-1.9178,0,0,0,0,0,-1.8995,-1.9029,-1.9018,-1.9023,-1.904,-1.906,-1.9062,-1.9049,-1.9029,-1.9045,-1.9041,-1.9022,-1.9063,-1.9043,-1.9048,-1.9072,-1.9114,-1.9118,-1.9122,-1.9161,-1.917,-1.9178,0,0,0,0,0,0,-1.9032,-1.9029,-1.9017,-1.9052,-1.9056,-1.9054,-1.9073,-1.9058,-1.9069,-1.9064,-1.9047,-1.9048,-1.9079,-1.9079,-1.9056,-1.9114,-1.9085,-1.909,-1.9113,-1.9122,-1.9129,-1.9128,-1.9022,0,0,0,0,0,-1.9045,-1.9062,-1.9057,-1.9089,-1.9092,-1.9082,-1.9091,-1.908,-1.9084,-1.9086,-1.9084,-1.9088,-1.9103,-1.9112,-1.9125,-1.9164,-1.9164,-1.9183,-1.919,-1.9196,-1.92,-1.9222,-1.9231,-1.9137,-1.9137,-1.9137,0,0,-1.9071,-1.9071,-1.9082,-1.9096,-1.9099,-1.9117,-1.9084,-1.9104,-1.9118,-1.9089,-1.9116,-1.9115,-1.9119,-1.9153,-1.9168,-1.9154,-1.9226,-1.9201,-1.9205,-1.9207,-1.9227,-1.9236,-1.9244,-1.914,-1.9139,-1.9139,0,0,-1.9127,-1.9128,-1.9155,-1.9159,-1.9163,-1.9157,-1.9164,-1.9164,-1.9162,-1.9189,-1.9168,-1.9184,-1.9208,-1.9213,-1.9218,-1.9278,-1.9261,-1.9282,-1.9319,-1.934,-1.9347,-1.9354,-1.9376,-1.9384,-1.9287,-1.9287,-1.9287,0,-1.9158,-1.9185,-1.9171,-1.9193,-1.92,-1.9176,-1.9203,-1.9207,-1.9216,-1.9221,-1.9205,-1.9236,-1.9237,-1.9273,-1.9288,-1.9293,-1.93,-1.9282,-1.9348,-1.9354,-1.936,-1.9381,-1.9389,-1.929,-1.9289,-1.9289,-1.9289,0,-1.9223,-1.9242,-1.9263,-1.9273,-1.9283,-1.9307,-1.9297,-1.9309,-1.9298,-1.9294,-1.9322,-1.9323,-1.9336,-1.9343,-1.9333,-1.9378,-1.9369,-1.935,-1.9321,-1.9372,-1.9391,-1.9399,-1.9293,-1.9293,-1.9292,-1.9291,0,0,-1.9302,-1.9305,-1.9313,-1.9318,-1.9322,-1.9337,-1.9361,-1.9374,-1.9384,-1.9391,-1.9411,-1.9434,-1.9417,-1.9423,-1.9413,-1.9432,-1.948,-1.9411,-1.9411,-1.9424,-1.9531,-1.9545,-1.9555,-1.9469,-1.9471,-1.9472,-1.9531,0,-1.9358,-1.9399,-1.9388,-1.9429,-1.9447,-1.9425,-1.9446,-1.9451,-1.9448,-1.9463,-1.9459,-1.9476,-1.9452,-1.9456,-1.9474,-1.9471,-1.9502,-1.9466,-1.9488,-1.9489,-1.9488,-1.9565,-1.9579,-1.9635,-1.9539,-1.954,-1.9541,0,-1.9428,-1.9439,-1.9482,-1.9485,-1.9492,-1.9511,-1.9523,-1.9537,-1.9543,-1.9539,-1.9547,-1.9534,-1.9558,-1.9529,-1.9562,-1.9538,-1.9547,-1.9547,-1.9549,-1.955,-1.9518,-1.9569,-1.9652,-1.9661,-1.9552,-1.9551,-1.9551,0,-1.9482,-1.9507,-1.9537,-1.9542,-1.9545,-1.9559,-1.9562,-1.9566,-1.9575,-1.9585,-1.9591,-1.9605,-1.9612,-1.9622,-1.9613,-1.9593,-1.9648,-1.9618,-1.9646,-1.9647,-1.9659,-1.9658,-1.9745,-1.9664,-1.9664,-1.9664,-1.9663,0,-1.9545,-1.9573,-1.9562,-1.958,-1.961,-1.9598,-1.9628,-1.9628,-1.9632,-1.965,-1.9632,-1.9649,-1.9635,-1.9652,-1.9644,-1.9674,-1.9677,-1.9675,-1.9673,-1.9677,-1.9677,-1.9682,-1.9678,-1.9666,-1.9665,-1.9665,-1.9665,0,-1.961,-1.9604,-1.9635,-1.9637,-1.9638,-1.966,-1.9661,-1.9678,-1.9675,-1.9698,-1.9702,-1.9697,-1.9715,-1.9707,-1.9725,-1.9721,-1.9759,-1.9751,-1.9757,-1.9755,-1.9784,-1.9782,-1.9877,-1.989,-1.98,-1.9801,-1.9802,0,-1.9651,-1.9672,-1.9676,-1.9687,-1.9691,-1.9709,-1.9719,-1.9708,-1.9719,-1.9728,-1.9744,-1.9761,-1.9774,-1.9804,-1.9801,-1.9816,-1.9809,-1.9842,-1.9811,-1.9815,-1.981,-1.9809,-1.9812,-1.9848,-1.9849,-1.985,-1.985,0,-1.9724,-1.9721,-1.9736,-1.975,-1.9763,-1.9773,-1.9782,-1.9792,-1.9782,-1.9795,-1.9814,-1.9824,-1.9845,-1.9862,-1.9875,-1.9877,-1.9862,-1.986,-1.9868,-1.9872,-1.9875,-1.9874,-1.9774,-1.9858,-1.9857,-1.9857,-1.9856,-1.9856,-1.9779,-1.9797,-1.9803,-1.9821,-1.9827,-1.9836,-1.9853,-1.9852,-1.9868,-1.9884,-1.9876,-1.9899,-1.9905,-1.9921,-1.9926,-1.9943,-1.993,-1.9941,-1.9944,-1.9946,-1.9951,-1.9872,-1.9946,-1.9945,-1.9945,-1.9945,-1.9945,0,-1.9851,-1.9855,-1.9871,-1.9885,-1.99,-1.9885,-1.9895,-1.9908,-1.9928,-1.9936,-1.9949,-1.9972,-1.9989,-1.9988,-2.0004,-2.0018,-2.0012,-2.0023,-2.0022,-2.0023,-1.9961,-1.9953,-2.0028,-2.0028,-2.0028,-2.0028,-2.0028,-2.0028,-1.9891,-1.9921,-1.9919,-1.9952,-1.9955,-1.9977,-1.9984,-1.9993,-1.9999,-2.0026,-2.004,-2.004,-2.0044,-2.0061,-2.0076,-2.0075,-2.0082,-2.0096,-2.0093,-2.0035,-2.0027,-2.0019,-2.0012,-2.0098,-2.0098,-2.0153,-2.0154,-2.0154]},{"header":{"parameterUnit":"m.s-1","parameterCategory":1,"la1":30.2991,"la2":30.254,"lo1":-89.0895,"lo2":-89.0444,"dy":0.0017,"dx":0.0017,"nx":28,"ny":28,"refTime":"2025-09-11T03:00:00:Z","depth":0,"parameterNumber":3,"parameterNumberName":"V-component_of_WINDS"},"data":[0,0,0,0,0,0,0,0,0,0,0,0,0,0,0,0,0,0,0,0,0,0,0,0,0,0,0,0,0,0,0,0,0,0,0,0,0,0,0,0,0,0,0,0,0,0,0,0,0,0,0,0,0,0,0,0,0,0,-1.398,-1.3979,0,-1.3927,-1.3926,-1.3925,-1.3856,-1.3855,-1.3854,-1.3853,-1.3797,-1.3797,-1.3797,0,0,0,0,0,0,0,0,0,0,0,0,0,-1.4021,-1.402,-1.398,-1.3979,-1.3979,-1.3927,-1.3926,-1.3925,-1.3857,-1.3855,-1.3854,-1.3853,-1.3798,-1.3797,-1.3797,0,0,0,0,0,0,0,0,0,0,0,0,0,-1.3989,-1.402,-1.398,-1.3938,-1.3934,-1.3927,-1.3926,-1.3925,-1.3857,-1.3855,-1.3853,-1.3852,-1.3798,-1.3797,-1.3796,-1.3826,0,0,-1.3794,-1.3794,0,0,0,0,0,0,0,0,-1.3991,-1.3987,-1.3945,-1.3941,-1.3936,-1.3896,-1.392,-1.3892,-1.3857,-1.3886,-1.3853,-1.3851,-1.3832,-1.3828,-1.3822,-1.3824,-1.3821,-1.3794,-1.3794,-1.3794,-1.3794,0,0,0,0,0,0,0,-1.3993,-1.3989,-1.3959,-1.3944,-1.3939,-1.3921,-1.3915,-1.3914,-1.3869,-1.3883,-1.3878,-1.3873,-1.3829,-1.3823,-1.382,-1.382,-1.3794,-1.3794,-1.3793,-1.3793,-1.3844,-1.3846,0,0,0,0,0,0,-1.4002,-1.3992,-1.396,-1.3957,-1.396,-1.3922,-1.3915,-1.3911,-1.3869,-1.3861,-1.3874,-1.387,-1.3825,-1.3821,-1.3818,-1.385,-1.3794,-1.3793,-1.3793,-1.3842,-1.3844,-1.3846,0,0,0,0,0,0,-1.4003,-1.4,-1.3963,-1.3973,-1.3967,-1.3923,-1.3919,-1.3911,-1.3904,-1.3862,-1.3853,-1.3876,-1.3823,-1.3819,-1.3825,-1.3847,-1.3793,-1.3792,-1.384,-1.3843,-1.3845,-1.3915,0,0,0,0,0,0,-1.4004,-1.4,-1.4012,-1.3974,-1.3967,-1.3971,-1.392,-1.3911,-1.3903,-1.3897,-1.3862,-1.3854,-1.3821,-1.3826,-1.3824,-1.3845,-1.3792,-1.3838,-1.3841,-1.3844,-1.3911,-1.392,-1.3928,0,0,0,0,0,-1.4006,-1.4033,-1.4013,-1.4009,-1.398,-1.3973,-1.3968,-1.3931,-1.3906,-1.3916,-1.3889,-1.3855,-1.3845,-1.3827,-1.3824,-1.3846,-1.3836,-1.384,-1.3844,-1.3907,-1.3918,-1.3928,0,0,0,0,0,0,-1.4075,-1.4027,-1.4004,-1.402,-1.4001,-1.3961,-1.3973,-1.3944,-1.3931,-1.3926,-1.3879,-1.3871,-1.3883,-1.3865,-1.3846,-1.3872,-1.3836,-1.3839,-1.3884,-1.3895,-1.3903,-1.3907,-1.3791,0,0,0,0,0,-1.4092,-1.409,-1.4049,-1.4066,-1.4058,-1.4018,-1.4013,-1.3986,-1.3964,-1.3955,-1.3928,-1.3908,-1.39,-1.3896,-1.3887,-1.3907,-1.3899,-1.3921,-1.3929,-1.3936,-1.394,-1.395,-1.396,-1.3859,-1.3859,-1.3859,0,0,-1.4126,-1.4101,-1.4102,-1.408,-1.4062,-1.4061,-1.4011,-1.4012,-1.4011,-1.3955,-1.396,-1.3939,-1.3913,-1.3927,-1.3932,-1.3912,-1.3966,-1.3941,-1.3947,-1.3947,-1.3955,-1.3965,-1.3973,-1.3862,-1.3861,-1.3861,0,0,-1.419,-1.417,-1.4183,-1.4166,-1.414,-1.4112,-1.4116,-1.408,-1.4065,-1.4068,-1.4026,-1.4024,-1.4011,-1.3995,-1.3985,-1.4042,-1.4011,-1.404,-1.4085,-1.4095,-1.4103,-1.411,-1.4131,-1.4139,-1.4044,-1.4044,-1.4044,0,-1.4237,-1.4234,-1.4193,-1.4197,-1.4189,-1.4138,-1.4151,-1.4136,-1.4108,-1.4103,-1.4081,-1.4064,-1.4043,-1.4053,-1.4067,-1.406,-1.4063,-1.4045,-1.4105,-1.4112,-1.4118,-1.4137,-1.4145,-1.4048,-1.4048,-1.4047,-1.4047,0,-1.4294,-1.4292,-1.4306,-1.4281,-1.4273,-1.4282,-1.4241,-1.4239,-1.4212,-1.4187,-1.4191,-1.4164,-1.4149,-1.4148,-1.4122,-1.4154,-1.4143,-1.4114,-1.4076,-1.4132,-1.4149,-1.4156,-1.4053,-1.4052,-1.4051,-1.405,0,0,-1.44,-1.4351,-1.4357,-1.4345,-1.4312,-1.431,-1.4316,-1.4301,-1.43,-1.4281,-1.4285,-1.4276,-1.4249,-1.4238,-1.4209,-1.4218,-1.4265,-1.4187,-1.4186,-1.4204,-1.43,-1.4323,-1.4332,-1.4244,-1.4245,-1.4246,-1.4302,0,-1.4458,-1.4466,-1.4429,-1.4446,-1.4445,-1.4396,-1.4401,-1.4382,-1.4358,-1.4353,-1.4327,-1.4322,-1.4286,-1.4279,-1.4286,-1.4258,-1.4284,-1.4254,-1.4247,-1.4248,-1.4256,-1.4341,-1.4365,-1.4419,-1.4309,-1.431,-1.4311,0,-1.4527,-1.4513,-1.4531,-1.4497,-1.4495,-1.45,-1.4484,-1.4479,-1.4456,-1.4438,-1.4426,-1.4392,-1.4395,-1.4358,-1.4362,-1.4342,-1.4337,-1.4323,-1.4324,-1.4323,-1.4283,-1.4343,-1.4436,-1.4444,-1.4321,-1.432,-1.4319,0,-1.4603,-1.4589,-1.4598,-1.4589,-1.4549,-1.4554,-1.4538,-1.4513,-1.4506,-1.4491,-1.4486,-1.4472,-1.4464,-1.4454,-1.4417,-1.4394,-1.4425,-1.4385,-1.4411,-1.4412,-1.442,-1.4421,-1.4515,-1.4416,-1.4416,-1.4416,-1.4415,0,-1.4673,-1.4686,-1.4632,-1.4638,-1.4651,-1.4608,-1.4621,-1.46,-1.4578,-1.4578,-1.4535,-1.4536,-1.4487,-1.4483,-1.4454,-1.4462,-1.4458,-1.4444,-1.4437,-1.4449,-1.4451,-1.4446,-1.4441,-1.4418,-1.4417,-1.4417,-1.4416,0,-1.4761,-1.4726,-1.4732,-1.4694,-1.4685,-1.4696,-1.4663,-1.4667,-1.4641,-1.4642,-1.4639,-1.4598,-1.4591,-1.4553,-1.4537,-1.4517,-1.4535,-1.4519,-1.4544,-1.4539,-1.4567,-1.4565,-1.4662,-1.4672,-1.4566,-1.4567,-1.4568,0,-1.4808,-1.4817,-1.478,-1.4778,-1.4763,-1.476,-1.4753,-1.471,-1.4705,-1.4679,-1.4685,-1.4674,-1.4664,-1.4654,-1.4622,-1.461,-1.4594,-1.4628,-1.4592,-1.4604,-1.4595,-1.4596,-1.4597,-1.4637,-1.4638,-1.4639,-1.464,0,-1.4896,-1.4878,-1.487,-1.4856,-1.4849,-1.4836,-1.482,-1.482,-1.4773,-1.4769,-1.4762,-1.4753,-1.4737,-1.4727,-1.4708,-1.4691,-1.4658,-1.4652,-1.4657,-1.467,-1.4685,-1.4678,-1.4566,-1.465,-1.4649,-1.4648,-1.4648,-1.4647,-1.4965,-1.4971,-1.4947,-1.4939,-1.4923,-1.4909,-1.4911,-1.4885,-1.4878,-1.4861,-1.4836,-1.4832,-1.4808,-1.478,-1.4765,-1.4761,-1.4742,-1.4749,-1.4752,-1.4754,-1.4761,-1.4684,-1.4757,-1.4757,-1.4756,-1.4756,-1.4756,0,-1.5052,-1.5033,-1.5027,-1.5006,-1.5001,-1.497,-1.4951,-1.4948,-1.4945,-1.4925,-1.4916,-1.4907,-1.4897,-1.4864,-1.4851,-1.4853,-1.4838,-1.4851,-1.4851,-1.4848,-1.4778,-1.4775,-1.4864,-1.4864,-1.4864,-1.4864,-1.4864,-1.4864,-1.5096,-1.5105,-1.5084,-1.5084,-1.5065,-1.5061,-1.5052,-1.5039,-1.5023,-1.5016,-1.5007,-1.4986,-1.4961,-1.4946,-1.4935,-1.4925,-1.4923,-1.4942,-1.4927,-1.4863,-1.4853,-1.4843,-1.484,-1.4941,-1.4941,-1.4997,-1.4998,-1.4998]}]]